Date,TemperatureHighF,TemperatureAvgF,TemperatureLowF,DewpointHighF,DewpointAvgF,DewpointLowF,HumidityHigh,HumidityAvg,HumidityLow,PressureMaxIn,PressureMinIn,WindSpeedMaxMPH,WindSpeedAvgMPH,GustSpeedMaxMPH,PrecipitationSumIn
2013-1-1,78,72,66,64,62,59,83,69,59,30.16,30.00,22,3,22,0.00
2013-1-2,82,71,62,68,64,59,92,78,53,30.05,29.94,12,1,12,0.00
2013-1-3,82,73,67,69,67,65,92,81,60,30.09,29.98,11,1,13,0.00
2013-1-4,80,72,66,71,68,63,92,87,67,30.18,30.06,10,2,11,0.01
2013-1-5,74,70,66,70,66,64,92,90,82,30.21,30.11,15,2,15,0.05
2013-1-6,80,73,66,73,68,63,92,86,73,30.14,30.01,17,2,17,0.01
2013-1-7,74,71,68,70,68,66,92,90,80,30.12,30.02,15,2,15,0.00
2013-1-8,81,75,69,73,70,67,92,86,72,30.15,30.03,19,3,19,0.00
2013-1-9,80,77,74,72,71,69,90,82,74,30.24,30.11,25,6,25,0.00
2013-1-10,79,76,73,70,67,64,82,75,63,30.25,30.13,24,5,28,0.08
2013-1-11,80,75,72,70,68,66,86,78,68,30.21,30.11,20,4,20,0.00
2013-1-12,78,74,67,70,68,64,91,82,69,30.14,30.05,17,2,17,0.03
2013-1-13,80,74,67,68,66,64,92,77,63,30.09,30.02,19,3,20,0.03
2013-1-14,79,72,64,66,64,62,92,78,62,30.13,30.07,18,2,19,0.00
2013-1-15,77,72,66,70,67,63,92,85,73,30.09,30.00,14,2,15,0.03
2013-1-16,80,72,64,70,67,61,92,84,69,30.06,29.97,15,2,16,0.04
2013-1-17,80,71,60,72,66,54,92,85,70,30.05,29.93,24,3,24,0.02
2013-1-18,70,63,52,60,54,47,83,74,64,30.19,30.05,19,5,19,0.00
2013-1-19,70,68,64,67,63,58,92,86,67,30.18,30.04,12,1,15,0.16
2013-1-20,79,70,64,70,66,62,92,86,68,30.10,29.96,14,1,15,0.18
2013-1-21,79,72,66,71,67,63,92,86,74,30.03,29.91,13,1,13,0.01
2013-1-22,74,67,62,64,60,55,92,78,61,30.17,29.96,22,4,22,0.00
2013-1-23,72,66,60,58,56,54,85,71,54,30.25,30.15,19,3,19,0.00
2013-1-24,74,65,58,56,54,44,88,69,45,30.25,30.15,17,2,17,0.00
2013-1-25,75,65,58,60,56,52,89,73,52,30.24,30.13,14,2,14,0.00
2013-1-26,76,66,59,62,59,53,92,77,54,30.21,30.11,13,1,15,0.00
2013-1-27,76,69,62,64,61,58,92,76,59,30.24,30.15,17,3,17,0.00
2013-1-28,78,74,70,66,64,62,79,72,60,30.27,30.17,21,4,22,0.00
2013-1-29,78,74,67,70,67,64,91,80,68,30.19,30.07,22,3,22,0.00
2013-1-30,80,74,70,68,66,64,88,76,64,30.08,29.92,23,4,26,0.00
2013-1-31,72,66,58,69,59,44,92,80,55,30.14,29.90,20,4,20,0.00